{"data":{"norad_id":67438,"intl_designator":"2026-007D","name":"HULIANWANG DIGUI-140","alt_names":[],"object_type":"PAYLOAD","status":"ACTIVE","operator":null,"country":"PRC","launch_date":"2026-01-13","launch_site_code":"WSC","launch_vehicle":null,"mission":null,"orbit_class":"UNKNOWN","rcs_meters":null,"size_class":null,"mass_kg":null,"dimensions":null,"purposes":[],"wikipedia_slug":null,"has_3d_model":false,"image_url":null,"decayed_at":null,"tle_current":{"epoch":"2026-05-25T00:36:53.281152Z","epoch_age_seconds":63113,"freshness":"FRESH","line1":"1 67438U 26007D   26145.02561668 -.00000084  00000+0  86682-4 0  9991","line2":"2 67438  50.0033 169.1031 0000869 280.8743  79.2031 13.29325038 17700","mean_motion":13.29325038,"eccentricity":8.69e-5,"inclination_deg":50.0033,"raan_deg":169.1031,"arg_perigee_deg":280.8743,"mean_anomaly_deg":79.2031,"bstar":8.6682e-5,"rev_number":1770,"period_min":108.32565090074,"perigee_km":1148.6560683092,"apogee_km":1149.9643386331,"semimajor_km":7527.4472034712,"source":"CELESTRAK","updated_at":"2026-05-25T13:38:07.004858Z"}}}